Time,TemperatureF,DewpointF,PressureIn,WindDirection,WindDirectionDegrees,WindSpeedMPH,WindSpeedGustMPH,Humidity,HourlyPrecipIn,Conditions,Clouds,dailyrainin,SoftwareType,DateUTC
2013-09-10 00:03:00,74.7,63.9,29.78,South,186,0.0,0.0,69,0.00,,,0.00,Wunderground v.1.15,2013-09-10 05:03:00,
2013-09-10 00:09:00,74.1,64.1,29.77,South,186,0.0,2.0,71,0.00,,,0.00,Wunderground v.1.15,2013-09-10 05:09:00,
2013-09-10 00:14:00,73.8,63.8,29.77,South,186,0.0,0.0,71,0.00,,,0.00,Wunderground v.1.15,2013-09-10 05:14:00,
2013-09-10 00:19:00,73.4,63.8,29.78,South,186,0.0,0.0,72,0.00,,,0.00,Wunderground v.1.15,2013-09-10 05:19:00,
2013-09-10 00:25:00,73.1,63.9,29.78,South,186,0.0,0.0,73,0.00,,,0.00,Wunderground v.1.15,2013-09-10 05:25:00,
2013-09-10 00:30:00,73.2,63.6,29.78,South,186,0.0,0.0,72,0.00,,,0.00,Wunderground v.1.15,2013-09-10 05:30:00,
2013-09-10 00:35:00,73.0,63.8,29.78,South,186,0.0,1.0,73,0.00,,,0.00,Wunderground v.1.15,2013-09-10 05:35:00,
2013-09-10 00:41:00,72.8,63.6,29.78,South,186,0.0,0.0,73,0.00,,,0.00,Wunderground v.1.15,2013-09-10 05:41:00,
2013-09-10 00:46:00,72.4,63.6,29.78,South,186,0.0,0.0,74,0.00,,,0.00,Wunderground v.1.15,2013-09-10 05:46:00,
2013-09-10 00:52:00,72.2,63.4,29.78,South,186,0.0,0.0,74,0.00,,,0.00,Wunderground v.1.15,2013-09-10 05:52:00,
2013-09-10 00:57:00,72.1,63.4,29.78,South,186,0.0,0.0,74,0.00,,,0.00,Wunderground v.1.15,2013-09-10 05:57:00,
2013-09-10 01:02:00,72.0,63.6,29.79,South,186,0.0,0.0,75,0.00,,,0.00,Wunderground v.1.15,2013-09-10 06:02:00,
2013-09-10 01:08:00,71.8,63.4,29.79,South,186,0.0,0.0,75,0.00,,,0.00,Wunderground v.1.15,2013-09-10 06:08:00,
2013-09-10 01:13:00,71.5,63.2,29.79,South,186,0.0,0.0,75,0.00,,,0.00,Wunderground v.1.15,2013-09-10 06:13:00,
2013-09-10 01:18:00,71.4,63.4,29.79,South,184,0.0,3.0,76,0.00,,,0.00,Wunderground v.1.15,2013-09-10 06:18:00,
2013-09-10 01:24:00,72.3,63.5,29.79,South,186,0.0,5.0,74,0.00,,,0.00,Wunderground v.1.15,2013-09-10 06:24:00,
2013-09-10 01:29:00,73.1,63.5,29.79,South,184,0.0,7.0,72,0.00,,,0.00,Wunderground v.1.15,2013-09-10 06:29:00,
2013-09-10 01:34:00,73.3,63.3,29.79,South,184,0.0,4.0,71,0.00,,,0.00,Wunderground v.1.15,2013-09-10 06:34:00,
2013-09-10 01:40:00,73.1,63.1,29.79,SSW,200,0.0,1.0,71,0.00,,,0.00,Wunderground v.1.15,2013-09-10 06:40:00,
2013-09-10 01:45:00,72.8,63.2,29.80,SSW,200,0.0,1.0,72,0.00,,,0.00,Wunderground v.1.15,2013-09-10 06:45:00,
2013-09-10 01:51:00,72.4,63.3,29.80,SSW,200,0.0,0.0,73,0.00,,,0.00,Wunderground v.1.15,2013-09-10 06:51:00,
2013-09-10 01:56:00,72.3,63.2,29.80,SSW,200,0.0,0.0,73,0.00,,,0.00,Wunderground v.1.15,2013-09-10 06:56:00,
2013-09-10 02:01:00,72.1,63.0,29.80,SSW,200,0.0,0.0,73,0.00,,,0.00,Wunderground v.1.15,2013-09-10 07:01:00,
2013-09-10 02:06:00,71.9,62.8,29.80,SSW,200,0.0,0.0,73,0.00,,,0.00,Wunderground v.1.15,2013-09-10 07:06:00,
2013-09-10 02:11:00,71.8,63.1,29.80,SSW,200,0.0,0.0,74,0.00,,,0.00,Wunderground v.1.15,2013-09-10 07:11:00,
2013-09-10 02:16:00,71.7,63.0,29.81,SSW,200,0.0,0.0,74,0.00,,,0.00,Wunderground v.1.15,2013-09-10 07:16:00,
2013-09-10 02:21:00,71.7,63.0,29.81,SSW,200,0.0,0.0,74,0.00,,,0.00,Wunderground v.1.15,2013-09-10 07:21:00,
2013-09-10 02:26:00,71.8,63.1,29.81,SSW,200,0.0,0.0,74,0.00,,,0.00,Wunderground v.1.15,2013-09-10 07:26:00,
2013-09-10 02:31:00,71.7,63.0,29.81,SSW,200,0.0,0.0,74,0.00,,,0.00,Wunderground v.1.15,2013-09-10 07:31:00,
2013-09-10 02:36:00,71.6,62.9,29.81,SSW,200,0.0,0.0,74,0.00,,,0.00,Wunderground v.1.15,2013-09-10 07:36:00,
2013-09-10 02:41:00,71.6,62.9,29.81,SSW,200,2.0,2.0,74,0.00,,,0.00,Wunderground v.1.15,2013-09-10 07:41:00,
2013-09-10 02:46:00,71.7,63.0,29.81,SSW,200,0.0,2.0,74,0.00,,,0.00,Wunderground v.1.15,2013-09-10 07:46:00,
2013-09-10 02:51:00,71.8,62.7,29.81,SSW,200,0.0,0.0,73,0.00,,,0.00,Wunderground v.1.15,2013-09-10 07:51:00,
2013-09-10 02:56:00,71.8,62.7,29.81,SSW,200,0.0,5.0,73,0.00,,,0.00,Wunderground v.1.15,2013-09-10 07:56:00,
2013-09-10 03:01:00,71.8,62.7,29.81,SSW,197,3.0,5.0,73,0.00,,,0.00,Wunderground v.1.15,2013-09-10 08:01:00,
2013-09-10 03:06:00,71.8,62.7,29.81,SSW,194,0.0,5.0,73,0.00,,,0.00,Wunderground v.1.15,2013-09-10 08:06:00,
2013-09-10 03:11:00,71.7,62.6,29.81,SSW,194,0.0,3.0,73,0.00,,,0.00,Wunderground v.1.15,2013-09-10 08:11:00,
2013-09-10 03:16:00,71.5,62.4,29.82,SSW,194,0.0,4.0,73,0.00,,,0.00,Wunderground v.1.15,2013-09-10 08:16:00,
2013-09-10 03:21:00,71.3,62.6,29.82,SSW,194,0.0,0.0,74,0.00,,,0.00,Wunderground v.1.15,2013-09-10 08:21:00,
2013-09-10 03:27:00,71.1,62.4,29.82,SSW,194,0.0,0.0,74,0.00,,,0.00,Wunderground v.1.15,2013-09-10 08:27:00,
2013-09-10 03:32:00,70.9,62.2,29.82,SSW,194,0.0,0.0,74,0.00,,,0.00,Wunderground v.1.15,2013-09-10 08:32:00,
2013-09-10 03:37:00,70.8,62.5,29.82,SSW,194,0.0,0.0,75,0.00,,,0.00,Wunderground v.1.15,2013-09-10 08:37:00,
2013-09-10 03:42:00,70.7,62.4,29.82,SSW,194,0.0,0.0,75,0.00,,,0.00,Wunderground v.1.15,2013-09-10 08:42:00,
2013-09-10 03:47:00,70.7,62.4,29.82,SSW,194,0.0,0.0,75,0.00,,,0.00,Wunderground v.1.15,2013-09-10 08:47:00,
2013-09-10 03:52:00,70.8,62.5,29.82,SSW,194,0.0,0.0,75,0.00,,,0.00,Wunderground v.1.15,2013-09-10 08:52:00,
2013-09-10 03:57:00,70.9,62.2,29.83,SSW,194,0.0,0.0,74,0.00,,,0.00,Wunderground v.1.15,2013-09-10 08:57:00,
2013-09-10 04:02:00,70.9,62.2,29.82,SSW,194,0.0,0.0,74,0.00,,,0.00,Wunderground v.1.15,2013-09-10 09:02:00,
2013-09-10 04:07:00,71.0,62.3,29.82,SSW,194,0.0,0.0,74,0.00,,,0.00,Wunderground v.1.15,2013-09-10 09:07:00,
2013-09-10 04:12:00,71.0,62.3,29.83,SSW,194,0.0,1.0,74,0.00,,,0.00,Wunderground v.1.15,2013-09-10 09:12:00,
2013-09-10 04:17:00,71.1,62.4,29.83,SSW,194,0.0,1.0,74,0.00,,,0.00,Wunderground v.1.15,2013-09-10 09:17:00,
2013-09-10 04:22:00,71.2,62.5,29.83,SSW,194,0.0,0.0,74,0.00,,,0.00,Wunderground v.1.15,2013-09-10 09:22:00,
2013-09-10 04:27:00,71.3,62.6,29.83,SSW,192,0.0,1.0,74,0.00,,,0.00,Wunderground v.1.15,2013-09-10 09:27:00,
2013-09-10 04:32:00,71.4,62.7,29.83,SSW,192,0.0,0.0,74,0.00,,,0.00,Wunderground v.1.15,2013-09-10 09:32:00,
2013-09-10 04:37:00,71.6,62.5,29.83,SSW,193,0.0,0.0,73,0.00,,,0.00,Wunderground v.1.15,2013-09-10 09:37:00,
2013-09-10 04:42:00,71.7,62.6,29.83,SSW,193,0.0,1.0,73,0.00,,,0.00,Wunderground v.1.15,2013-09-10 09:42:00,
2013-09-10 04:47:00,71.7,62.6,29.83,SSW,192,0.0,1.0,73,0.00,,,0.00,Wunderground v.1.15,2013-09-10 09:47:00,
2013-09-10 04:52:00,71.8,62.7,29.83,SSW,192,0.0,0.0,73,0.00,,,0.00,Wunderground v.1.15,2013-09-10 09:52:00,
2013-09-10 04:57:00,71.9,62.8,29.83,SSW,194,0.0,3.0,73,0.00,,,0.00,Wunderground v.1.15,2013-09-10 09:57:00,
2013-09-10 05:02:00,71.9,62.4,29.83,SSW,194,0.0,0.0,72,0.00,,,0.00,Wunderground v.1.15,2013-09-10 10:02:00,
2013-09-10 05:07:00,71.8,62.7,29.83,SSW,194,0.0,1.0,73,0.00,,,0.00,Wunderground v.1.15,2013-09-10 10:07:00,
2013-09-10 05:12:00,71.8,62.7,29.83,SSW,194,0.0,0.0,73,0.00,,,0.00,Wunderground v.1.15,2013-09-10 10:12:00,
2013-09-10 05:17:00,71.7,62.6,29.83,SSW,194,0.0,0.0,73,0.00,,,0.00,Wunderground v.1.15,2013-09-10 10:17:00,
2013-09-10 05:22:00,71.6,62.5,29.84,SSW,194,0.0,2.0,73,0.00,,,0.00,Wunderground v.1.15,2013-09-10 10:22:00,
2013-09-10 05:27:00,71.5,62.4,29.84,SSW,194,0.0,2.0,73,0.00,,,0.00,Wunderground v.1.15,2013-09-10 10:27:00,
2013-09-10 05:32:00,71.3,62.2,29.84,SSW,194,0.0,0.0,73,0.00,,,0.00,Wunderground v.1.15,2013-09-10 10:32:00,
2013-09-10 05:37:00,71.3,62.2,29.84,SSW,194,0.0,0.0,73,0.00,,,0.00,Wunderground v.1.15,2013-09-10 10:37:00,
2013-09-10 05:42:00,71.3,62.2,29.84,SSW,194,0.0,0.0,73,0.00,,,0.00,Wunderground v.1.15,2013-09-10 10:42:00,
2013-09-10 05:47:00,71.3,62.6,29.84,SSW,193,0.0,0.0,74,0.00,,,0.00,Wunderground v.1.15,2013-09-10 10:47:00,
2013-09-10 05:53:00,71.3,62.6,29.84,SSW,193,0.0,0.0,74,0.00,,,0.00,Wunderground v.1.15,2013-09-10 10:53:00,
2013-09-10 05:57:00,71.3,62.6,29.84,SSW,193,0.0,1.0,74,0.00,,,0.00,Wunderground v.1.15,2013-09-10 10:57:00,
2013-09-10 06:02:00,71.2,62.5,29.84,SSW,193,0.0,0.0,74,0.00,,,0.00,Wunderground v.1.15,2013-09-10 11:02:00,
2013-09-10 06:08:00,70.9,62.2,29.84,SSW,193,0.0,0.0,74,0.00,,,0.00,Wunderground v.1.15,2013-09-10 11:08:00,
2013-09-10 06:13:00,70.6,62.3,29.84,SSW,193,0.0,0.0,75,0.00,,,0.00,Wunderground v.1.15,2013-09-10 11:13:00,
2013-09-10 06:18:00,70.3,62.0,29.85,SSW,193,0.0,0.0,75,0.00,,,0.00,Wunderground v.1.15,2013-09-10 11:18:00,
2013-09-10 06:23:00,70.1,62.2,29.85,SSW,193,0.0,0.0,76,0.00,,,0.00,Wunderground v.1.15,2013-09-10 11:23:00,
2013-09-10 06:28:00,70.0,62.1,29.85,SSW,193,0.0,0.0,76,0.00,,,0.00,Wunderground v.1.15,2013-09-10 11:28:00,
2013-09-10 06:33:00,69.7,61.8,29.85,SSW,193,0.0,0.0,76,0.00,,,0.00,Wunderground v.1.15,2013-09-10 11:33:00,
2013-09-10 06:38:00,69.6,62.1,29.86,SSW,193,0.0,0.0,77,0.00,,,0.00,Wunderground v.1.15,2013-09-10 11:38:00,
2013-09-10 06:43:00,69.6,62.1,29.85,SSW,193,0.0,0.0,77,0.00,,,0.00,Wunderground v.1.15,2013-09-10 11:43:00,
2013-09-10 06:48:00,69.6,62.1,29.86,SSW,193,0.0,0.0,77,0.00,,,0.00,Wunderground v.1.15,2013-09-10 11:48:00,
2013-09-10 06:53:00,69.6,62.1,29.86,SSW,193,0.0,0.0,77,0.00,,,0.00,Wunderground v.1.15,2013-09-10 11:53:00,
2013-09-10 06:58:00,69.5,62.3,29.86,SSW,193,3.0,3.0,78,0.00,,,0.00,Wunderground v.1.15,2013-09-10 11:58:00,
2013-09-10 07:03:00,69.6,62.4,29.86,SSW,192,0.0,3.0,78,0.00,,,0.00,Wunderground v.1.15,2013-09-10 12:03:00,
2013-09-10 07:08:00,69.7,62.5,29.86,SSW,192,0.0,3.0,78,0.00,,,0.00,Wunderground v.1.15,2013-09-10 12:08:00,
2013-09-10 07:13:00,69.8,62.6,29.87,SSW,192,0.0,0.0,78,0.00,,,0.00,Wunderground v.1.15,2013-09-10 12:13:00,
2013-09-10 07:18:00,69.9,62.7,29.86,SSW,192,0.0,0.0,78,0.00,,,0.00,Wunderground v.1.15,2013-09-10 12:18:00,
2013-09-10 07:23:00,69.9,62.7,29.87,SSW,192,0.0,0.0,78,0.00,,,0.00,Wunderground v.1.15,2013-09-10 12:23:00,
2013-09-10 07:28:00,70.0,62.8,29.87,SSW,192,0.0,0.0,78,0.00,,,0.00,Wunderground v.1.15,2013-09-10 12:28:00,
2013-09-10 07:33:00,70.0,62.8,29.87,SSW,192,0.0,1.0,78,0.00,,,0.00,Wunderground v.1.15,2013-09-10 12:33:00,
2013-09-10 07:38:00,70.4,63.2,29.88,SSW,192,0.0,1.0,78,0.00,,,0.00,Wunderground v.1.15,2013-09-10 12:38:00,
2013-09-10 07:43:00,70.5,63.3,29.87,SSW,192,0.0,0.0,78,0.00,,,0.00,Wunderground v.1.15,2013-09-10 12:43:00,
2013-09-10 07:48:00,70.8,63.2,29.87,SSW,192,0.0,3.0,77,0.00,,,0.00,Wunderground v.1.15,2013-09-10 12:48:00,
2013-09-10 07:53:00,71.5,63.5,29.87,SSW,192,0.0,4.0,76,0.00,,,0.00,Wunderground v.1.15,2013-09-10 12:53:00,
2013-09-10 07:58:00,72.2,64.2,29.87,South,188,0.0,5.0,76,0.00,,,0.00,Wunderground v.1.15,2013-09-10 12:58:00,
2013-09-10 08:03:00,72.8,64.8,29.88,South,188,0.0,1.0,76,0.00,,,0.00,Wunderground v.1.15,2013-09-10 13:03:00,
2013-09-10 08:09:00,73.4,64.6,29.87,South,190,0.0,5.0,74,0.00,,,0.00,Wunderground v.1.15,2013-09-10 13:09:00,
2013-09-10 08:13:00,73.9,64.7,29.87,South,189,0.0,9.0,73,0.00,,,0.00,Wunderground v.1.15,2013-09-10 13:13:00,
2013-09-10 08:19:00,74.5,64.9,29.87,South,188,4.0,9.0,72,0.00,,,0.00,Wunderground v.1.15,2013-09-10 13:19:00,
2013-09-10 08:24:00,75.2,64.7,29.88,South,170,3.0,5.0,70,0.00,,,0.00,Wunderground v.1.15,2013-09-10 13:24:00,
2013-09-10 08:28:00,75.9,65.0,29.87,SSE,168,0.0,5.0,69,0.00,,,0.00,Wunderground v.1.15,2013-09-10 13:28:00,
2013-09-10 08:33:00,76.5,65.6,29.87,South,184,0.0,7.0,69,0.00,,,0.00,Wunderground v.1.15,2013-09-10 13:33:00,
2013-09-10 08:39:00,77.0,65.6,29.87,South,188,0.0,7.0,68,0.00,,,0.00,Wunderground v.1.15,2013-09-10 13:39:00,
2013-09-10 08:44:00,77.6,65.3,29.87,South,175,4.0,7.0,66,0.00,,,0.00,Wunderground v.1.15,2013-09-10 13:44:00,
2013-09-10 08:48:00,78.0,65.7,29.87,West,266,0.0,7.0,66,0.00,,,0.00,Wunderground v.1.15,2013-09-10 13:48:00,
2013-09-10 08:53:00,78.5,65.8,29.87,South,183,0.0,13.0,65,0.00,,,0.00,Wunderground v.1.15,2013-09-10 13:53:00,
2013-09-10 08:58:00,78.8,65.6,29.87,WNW,286,0.0,13.0,64,0.00,,,0.00,Wunderground v.1.15,2013-09-10 13:58:00,
2013-09-10 09:03:00,79.2,65.5,29.87,SSE,163,0.0,5.0,63,0.00,,,0.00,Wunderground v.1.15,2013-09-10 14:03:00,
2013-09-10 09:08:00,79.6,65.9,29.87,South,176,0.0,11.0,63,0.00,,,0.00,Wunderground v.1.15,2013-09-10 14:08:00,
2013-09-10 09:14:00,79.9,65.7,29.87,South,169,3.0,10.0,62,0.00,,,0.00,Wunderground v.1.15,2013-09-10 14:14:00,
2013-09-10 09:19:00,80.3,66.1,29.87,SSE,163,1.0,10.0,62,0.00,,,0.00,Wunderground v.1.15,2013-09-10 14:19:00,
2013-09-10 09:24:00,80.7,65.5,29.87,West,260,4.0,9.0,60,0.00,,,0.00,Wunderground v.1.15,2013-09-10 14:24:00,
2013-09-10 09:29:00,81.1,65.4,29.88,West,277,2.0,9.0,59,0.00,,,0.00,Wunderground v.1.15,2013-09-10 14:29:00,
2013-09-10 09:34:00,81.3,66.1,29.88,North,350,4.0,10.0,60,0.00,,,0.00,Wunderground v.1.15,2013-09-10 14:34:00,
2013-09-10 09:39:00,81.7,66.0,29.88,WSW,244,2.0,10.0,59,0.00,,,0.00,Wunderground v.1.15,2013-09-10 14:39:00,
2013-09-10 09:44:00,82.0,65.8,29.88,WNW,289,7.0,10.0,58,0.00,,,0.00,Wunderground v.1.15,2013-09-10 14:44:00,
2013-09-10 09:49:00,82.3,65.5,29.88,NW,306,11.0,13.0,57,0.00,,,0.00,Wunderground v.1.15,2013-09-10 14:49:00,
2013-09-10 09:54:00,82.7,65.9,29.88,West,267,4.0,11.0,57,0.00,,,0.00,Wunderground v.1.15,2013-09-10 14:54:00,
2013-09-10 09:59:00,83.1,65.8,29.88,West,263,6.0,11.0,56,0.00,,,0.00,Wunderground v.1.15,2013-09-10 14:59:00,
2013-09-10 10:04:00,83.6,66.2,29.88,WSW,246,6.0,11.0,56,0.00,,,0.00,Wunderground v.1.15,2013-09-10 15:04:00,
2013-09-10 10:09:00,84.1,66.2,29.87,SW,234,1.0,11.0,55,0.00,,,0.00,Wunderground v.1.15,2013-09-10 15:09:00,
2013-09-10 10:14:00,84.6,66.1,29.87,West,275,1.0,10.0,54,0.00,,,0.00,Wunderground v.1.15,2013-09-10 15:14:00,
2013-09-10 10:19:00,85.1,66.0,29.87,ENE,77,1.0,11.0,53,0.00,,,0.00,Wunderground v.1.15,2013-09-10 15:19:00,
2013-09-10 10:24:00,85.6,66.5,29.87,SSE,151,0.0,8.0,53,0.00,,,0.00,Wunderground v.1.15,2013-09-10 15:24:00,
2013-09-10 10:29:00,86.2,67.1,29.88,WSW,240,4.0,10.0,53,0.00,,,0.00,Wunderground v.1.15,2013-09-10 15:29:00,
2013-09-10 10:34:00,86.5,65.7,29.87,West,265,6.0,14.0,50,0.00,,,0.00,Wunderground v.1.15,2013-09-10 15:34:00,
2013-09-10 10:39:00,86.7,67.0,29.87,WNW,291,7.0,14.0,52,0.00,,,0.00,Wunderground v.1.15,2013-09-10 15:39:00,
2013-09-10 10:44:00,87.1,66.2,29.87,WNW,290,5.0,10.0,50,0.00,,,0.00,Wunderground v.1.15,2013-09-10 15:44:00,
2013-09-10 10:49:00,87.4,67.6,29.87,SSW,210,0.0,10.0,52,0.00,,,0.00,Wunderground v.1.15,2013-09-10 15:49:00,
2013-09-10 10:54:00,88.1,66.5,29.87,SSW,208,2.0,10.0,49,0.00,,,0.00,Wunderground v.1.15,2013-09-10 15:54:00,
2013-09-10 10:59:00,88.6,66.4,29.87,West,263,9.0,11.0,48,0.00,,,0.00,Wunderground v.1.15,2013-09-10 15:59:00,
2013-09-10 11:05:00,88.8,66.0,29.86,WNW,287,8.0,11.0,47,0.00,,,0.00,Wunderground v.1.15,2013-09-10 16:05:00,
2013-09-10 11:10:00,89.0,65.5,29.87,WNW,288,8.0,8.0,46,0.00,,,0.00,Wunderground v.1.15,2013-09-10 16:10:00,
2013-09-10 11:15:00,89.0,66.2,29.87,West,259,7.0,12.0,47,0.00,,,0.00,Wunderground v.1.15,2013-09-10 16:15:00,
2013-09-10 11:20:00,89.0,65.5,29.86,WNW,288,7.0,7.0,46,0.00,,,0.00,Wunderground v.1.15,2013-09-10 16:20:00,
2013-09-10 11:25:00,89.6,66.7,29.87,SSW,200,4.0,11.0,47,0.00,,,0.00,Wunderground v.1.15,2013-09-10 16:25:00,
2013-09-10 11:30:00,89.6,65.4,29.87,WNW,292,5.0,6.0,45,0.00,,,0.00,Wunderground v.1.15,2013-09-10 16:30:00,
2013-09-10 11:35:00,89.9,66.3,29.87,SSW,208,3.0,14.0,46,0.00,,,0.00,Wunderground v.1.15,2013-09-10 16:35:00,
2013-09-10 11:40:00,90.1,66.5,29.87,West,277,10.0,10.0,46,0.00,,,0.00,Wunderground v.1.15,2013-09-10 16:40:00,
2013-09-10 11:45:00,90.4,66.2,29.87,West,281,9.0,12.0,45,0.00,,,0.00,Wunderground v.1.15,2013-09-10 16:45:00,
2013-09-10 11:50:00,90.5,66.3,29.87,WNW,297,10.0,10.0,45,0.00,,,0.00,Wunderground v.1.15,2013-09-10 16:50:00,
2013-09-10 11:55:00,90.7,66.4,29.87,West,273,5.0,15.0,45,0.00,,,0.00,Wunderground v.1.15,2013-09-10 16:55:00,
2013-09-10 12:00:00,91.0,66.1,29.87,West,275,8.0,9.0,44,0.00,,,0.00,Wunderground v.1.15,2013-09-10 17:00:00,
2013-09-10 12:05:00,91.3,67.6,29.86,SW,225,2.0,13.0,46,0.00,,,0.00,Wunderground v.1.15,2013-09-10 17:05:00,
2013-09-10 12:10:00,91.5,66.5,29.86,South,171,0.0,9.0,44,0.00,,,0.00,Wunderground v.1.15,2013-09-10 17:10:00,
2013-09-10 12:15:00,92.2,67.1,29.86,WNW,286,11.0,16.0,44,0.00,,,0.00,Wunderground v.1.15,2013-09-10 17:15:00,
2013-09-10 12:21:00,92.4,67.3,29.86,SSE,159,0.0,5.0,44,0.00,,,0.00,Wunderground v.1.15,2013-09-10 17:21:00,
2013-09-10 12:26:00,92.7,66.9,29.87,SSW,192,11.0,11.0,43,0.00,,,0.00,Wunderground v.1.15,2013-09-10 17:26:00,
2013-09-10 12:31:00,92.6,66.8,29.86,WNW,293,4.0,6.0,43,0.00,,,0.00,Wunderground v.1.15,2013-09-10 17:31:00,
2013-09-10 12:37:00,92.9,67.8,29.86,South,178,9.0,12.0,44,0.00,,,0.00,Wunderground v.1.15,2013-09-10 17:37:00,
2013-09-10 12:42:00,93.3,67.5,29.86,West,268,5.0,5.0,43,0.00,,,0.00,Wunderground v.1.15,2013-09-10 17:42:00,
2013-09-10 12:47:00,93.4,66.9,29.86,WNW,290,6.0,7.0,42,0.00,,,0.00,Wunderground v.1.15,2013-09-10 17:47:00,
2013-09-10 12:52:00,93.4,66.9,29.86,WSW,251,11.0,14.0,42,0.00,,,0.00,Wunderground v.1.15,2013-09-10 17:52:00,
2013-09-10 12:57:00,93.5,67.0,29.86,West,281,5.0,14.0,42,0.00,,,0.00,Wunderground v.1.15,2013-09-10 17:57:00,
2013-09-10 13:02:00,93.7,66.4,29.86,NW,305,14.0,15.0,41,0.00,,,0.00,Wunderground v.1.15,2013-09-10 18:02:00,
2013-09-10 13:07:00,93.6,67.1,29.86,South,169,4.0,15.0,42,0.00,,,0.00,Wunderground v.1.15,2013-09-10 18:07:00,
2013-09-10 13:12:00,93.8,66.5,29.86,NW,315,7.0,14.0,41,0.00,,,0.00,Wunderground v.1.15,2013-09-10 18:12:00,
2013-09-10 13:17:00,93.8,67.2,29.85,WNW,282,4.0,14.0,42,0.00,,,0.00,Wunderground v.1.15,2013-09-10 18:17:00,
2013-09-10 13:22:00,93.9,65.9,29.86,West,279,2.0,17.0,40,0.00,,,0.00,Wunderground v.1.15,2013-09-10 18:22:00,
2013-09-10 13:27:00,94.1,66.8,29.86,West,275,8.0,18.0,41,0.00,,,0.00,Wunderground v.1.15,2013-09-10 18:27:00,
2013-09-10 13:32:00,94.5,66.4,29.86,NNW,327,5.0,11.0,40,0.00,,,0.00,Wunderground v.1.15,2013-09-10 18:32:00,
2013-09-10 13:37:00,94.6,67.3,29.86,West,271,6.0,15.0,41,0.00,,,0.00,Wunderground v.1.15,2013-09-10 18:37:00,
2013-09-10 13:42:00,94.7,67.3,29.85,WSW,244,5.0,11.0,41,0.00,,,0.00,Wunderground v.1.15,2013-09-10 18:42:00,
2013-09-10 13:47:00,95.1,67.0,29.85,West,276,6.0,17.0,40,0.00,,,0.00,Wunderground v.1.15,2013-09-10 18:47:00,
2013-09-10 13:52:00,95.5,67.3,29.85,SE,129,4.0,11.0,40,0.00,,,0.00,Wunderground v.1.15,2013-09-10 18:52:00,
2013-09-10 13:57:00,95.5,65.9,29.85,SSE,167,4.0,16.0,38,0.00,,,0.00,Wunderground v.1.15,2013-09-10 18:57:00,
2013-09-10 14:02:00,95.6,66.7,29.85,SSW,192,11.0,19.0,39,0.00,,,0.00,Wunderground v.1.15,2013-09-10 19:02:00,
2013-09-10 14:07:00,95.8,66.1,29.85,South,190,4.0,19.0,38,0.00,,,0.00,Wunderground v.1.15,2013-09-10 19:07:00,
2013-09-10 14:12:00,96.1,66.4,29.85,South,172,3.0,12.0,38,0.00,,,0.00,Wunderground v.1.15,2013-09-10 19:12:00,
2013-09-10 14:17:00,96.2,66.5,29.84,SSW,194,12.0,20.0,38,0.00,,,0.00,Wunderground v.1.15,2013-09-10 19:17:00,
2013-09-10 14:22:00,96.4,65.9,29.84,WNW,295,10.0,20.0,37,0.00,,,0.00,Wunderground v.1.15,2013-09-10 19:22:00,
2013-09-10 14:27:00,96.2,67.2,29.84,South,180,13.0,20.0,39,0.00,,,0.00,Wunderground v.1.15,2013-09-10 19:27:00,
2013-09-10 14:32:00,96.6,65.3,29.84,SSW,198,1.0,22.0,36,0.00,,,0.00,Wunderground v.1.15,2013-09-10 19:32:00,
2013-09-10 14:37:00,96.8,65.4,29.84,West,271,1.0,22.0,36,0.00,,,0.00,Wunderground v.1.15,2013-09-10 19:37:00,
2013-09-10 14:42:00,96.8,65.4,29.83,SSW,206,9.0,13.0,36,0.00,,,0.00,Wunderground v.1.15,2013-09-10 19:42:00,
2013-09-10 14:48:00,96.6,66.1,29.84,NW,317,7.0,13.0,37,0.00,,,0.00,Wunderground v.1.15,2013-09-10 19:48:00,
2013-09-10 14:53:00,96.1,66.4,29.84,West,278,9.0,15.0,38,0.00,,,0.00,Wunderground v.1.15,2013-09-10 19:53:00,
2013-09-10 14:58:00,96.2,66.5,29.83,East,81,3.0,15.0,38,0.00,,,0.00,Wunderground v.1.15,2013-09-10 19:58:00,
2013-09-10 15:03:00,96.4,66.7,29.83,WNW,286,10.0,14.0,38,0.00,,,0.00,Wunderground v.1.15,2013-09-10 20:03:00,
2013-09-10 15:08:00,96.3,66.6,29.83,WNW,289,12.0,16.0,38,0.00,,,0.00,Wunderground v.1.15,2013-09-10 20:08:00,
2013-09-10 15:13:00,96.1,67.1,29.83,South,172,5.0,12.0,39,0.00,,,0.00,Wunderground v.1.15,2013-09-10 20:13:00,
2013-09-10 15:18:00,96.2,65.7,29.83,West,277,4.0,16.0,37,0.00,,,0.00,Wunderground v.1.15,2013-09-10 20:18:00,
2013-09-10 15:23:00,96.0,66.3,29.83,NW,304,7.0,15.0,38,0.00,,,0.00,Wunderground v.1.15,2013-09-10 20:23:00,
2013-09-10 15:28:00,96.2,67.2,29.83,SSW,196,2.0,15.0,39,0.00,,,0.00,Wunderground v.1.15,2013-09-10 20:28:00,
2013-09-10 15:33:00,96.5,66.7,29.83,WNW,283,6.0,12.0,38,0.00,,,0.00,Wunderground v.1.15,2013-09-10 20:33:00,
2013-09-10 15:38:00,96.3,65.8,29.83,West,259,10.0,17.0,37,0.00,,,0.00,Wunderground v.1.15,2013-09-10 20:38:00,
2013-09-10 15:43:00,95.5,65.9,29.82,WNW,287,4.0,18.0,38,0.00,,,0.00,Wunderground v.1.15,2013-09-10 20:43:00,
2013-09-10 15:48:00,95.7,66.0,29.83,WNW,297,9.0,18.0,38,0.00,,,0.00,Wunderground v.1.15,2013-09-10 20:48:00,
2013-09-10 15:53:00,96.0,66.3,29.83,WSW,245,4.0,11.0,38,0.00,,,0.00,Wunderground v.1.15,2013-09-10 20:53:00,
2013-09-10 15:58:00,96.2,65.7,29.83,NW,317,3.0,15.0,37,0.00,,,0.00,Wunderground v.1.15,2013-09-10 20:58:00,
2013-09-10 16:03:00,95.7,66.0,29.83,WSW,245,5.0,16.0,38,0.00,,,0.00,Wunderground v.1.15,2013-09-10 21:03:00,
2013-09-10 16:08:00,95.8,66.9,29.83,West,281,8.0,16.0,39,0.00,,,0.00,Wunderground v.1.15,2013-09-10 21:08:00,
2013-09-10 16:13:00,96.0,66.3,29.83,WSW,240,7.0,13.0,38,0.00,,,0.00,Wunderground v.1.15,2013-09-10 21:13:00,
2013-09-10 16:18:00,96.0,65.5,29.83,West,271,11.0,18.0,37,0.00,,,0.00,Wunderground v.1.15,2013-09-10 21:18:00,
2013-09-10 16:23:00,96.0,65.5,29.83,WSW,245,12.0,19.0,37,0.00,,,0.00,Wunderground v.1.15,2013-09-10 21:23:00,
2013-09-10 16:28:00,95.9,65.4,29.83,West,271,10.0,19.0,37,0.00,,,0.00,Wunderground v.1.15,2013-09-10 21:28:00,
2013-09-10 16:33:00,95.7,66.8,29.82,SSE,161,1.0,13.0,39,0.00,,,0.00,Wunderground v.1.15,2013-09-10 21:33:00,
2013-09-10 16:38:00,95.8,66.1,29.82,South,171,3.0,13.0,38,0.00,,,0.00,Wunderground v.1.15,2013-09-10 21:38:00,
2013-09-10 16:43:00,96.0,66.3,29.82,West,273,6.0,11.0,38,0.00,,,0.00,Wunderground v.1.15,2013-09-10 21:43:00,
2013-09-10 16:48:00,95.2,65.6,29.82,WSW,242,5.0,14.0,38,0.00,,,0.00,Wunderground v.1.15,2013-09-10 21:48:00,
2013-09-10 16:54:00,94.5,65.7,29.82,WNW,284,4.0,13.0,39,0.00,,,0.00,Wunderground v.1.15,2013-09-10 21:54:00,
2013-09-10 16:59:00,94.2,65.4,29.82,West,277,2.0,13.0,39,0.00,,,0.00,Wunderground v.1.15,2013-09-10 21:59:00,
2013-09-10 17:03:00,94.2,66.2,29.82,ESE,108,0.0,11.0,40,0.00,,,0.00,Wunderground v.1.15,2013-09-10 22:03:00,
2013-09-10 17:08:00,94.2,66.2,29.82,West,277,3.0,15.0,40,0.00,,,0.00,Wunderground v.1.15,2013-09-10 22:08:00,
2013-09-10 17:13:00,94.2,66.2,29.82,SW,236,6.0,10.0,40,0.00,,,0.00,Wunderground v.1.15,2013-09-10 22:13:00,
2013-09-10 17:18:00,94.1,66.8,29.82,West,271,1.0,10.0,41,0.00,,,0.00,Wunderground v.1.15,2013-09-10 22:18:00,
2013-09-10 17:23:00,93.6,67.1,29.82,West,269,0.0,7.0,42,0.00,,,0.00,Wunderground v.1.15,2013-09-10 22:23:00,
2013-09-10 17:28:00,93.1,67.3,29.82,SSE,163,1.0,7.0,43,0.00,,,0.00,Wunderground v.1.15,2013-09-10 22:28:00,
2013-09-10 17:33:00,92.7,66.2,29.82,West,267,0.0,8.0,42,0.00,,,0.00,Wunderground v.1.15,2013-09-10 22:33:00,
2013-09-10 17:38:00,92.4,66.7,29.82,West,281,0.0,8.0,43,0.00,,,0.00,Wunderground v.1.15,2013-09-10 22:38:00,
2013-09-10 17:44:00,92.1,66.4,29.82,South,186,2.0,4.0,43,0.00,,,0.00,Wunderground v.1.15,2013-09-10 22:44:00,
2013-09-10 17:49:00,92.0,67.0,29.82,SSW,196,0.0,7.0,44,0.00,,,0.00,Wunderground v.1.15,2013-09-10 22:49:00,
2013-09-10 17:54:00,91.9,66.9,29.82,WNW,302,0.0,3.0,44,0.00,,,0.00,Wunderground v.1.15,2013-09-10 22:54:00,
2013-09-10 17:59:00,91.8,66.8,29.82,NW,326,0.0,3.0,44,0.00,,,0.00,Wunderground v.1.15,2013-09-10 22:59:00,
2013-09-10 18:04:00,91.7,66.7,29.82,West,277,5.0,6.0,44,0.00,,,0.00,Wunderground v.1.15,2013-09-10 23:04:00,
2013-09-10 18:09:00,91.9,66.9,29.82,WSW,254,0.0,6.0,44,0.00,,,0.00,Wunderground v.1.15,2013-09-10 23:09:00,
2013-09-10 18:14:00,92.3,67.2,29.81,SW,231,3.0,6.0,44,0.00,,,0.00,Wunderground v.1.15,2013-09-10 23:14:00,
2013-09-10 18:19:00,92.5,67.4,29.81,WSW,245,0.0,6.0,44,0.00,,,0.00,Wunderground v.1.15,2013-09-10 23:19:00,
2013-09-10 18:24:00,92.4,67.3,29.82,South,179,0.0,3.0,44,0.00,,,0.00,Wunderground v.1.15,2013-09-10 23:24:00,
2013-09-10 18:29:00,92.2,67.1,29.82,South,173,0.0,5.0,44,0.00,,,0.00,Wunderground v.1.15,2013-09-10 23:29:00,
2013-09-10 18:34:00,91.8,67.4,29.82,South,173,0.0,1.0,45,0.00,,,0.00,Wunderground v.1.15,2013-09-10 23:34:00,
2013-09-10 18:39:00,91.3,67.0,29.82,South,173,0.0,1.0,45,0.00,,,0.00,Wunderground v.1.15,2013-09-10 23:39:00,
2013-09-10 18:44:00,90.8,67.2,29.82,South,174,0.0,0.0,46,0.00,,,0.00,Wunderground v.1.15,2013-09-10 23:44:00,
2013-09-10 18:49:00,90.2,67.2,29.82,South,175,0.0,0.0,47,0.00,,,0.00,Wunderground v.1.15,2013-09-10 23:49:00,
2013-09-10 18:54:00,89.5,67.2,29.82,South,182,0.0,0.0,48,0.00,,,0.00,Wunderground v.1.15,2013-09-10 23:54:00,
2013-09-10 18:59:00,88.8,66.6,29.82,South,185,0.0,0.0,48,0.00,,,0.00,Wunderground v.1.15,2013-09-10 23:59:00,
2013-09-10 19:04:00,88.4,66.2,29.82,SSW,194,9.0,9.0,48,0.00,,,0.00,Wunderground v.1.15,2013-09-11 00:04:00,
2013-09-10 19:09:00,88.1,66.5,29.82,SSW,192,4.0,9.0,49,0.00,,,0.00,Wunderground v.1.15,2013-09-11 00:09:00,
2013-09-10 19:14:00,87.7,66.8,29.83,SSW,202,0.0,4.0,50,0.00,,,0.00,Wunderground v.1.15,2013-09-11 00:14:00,
2013-09-10 19:19:00,86.7,67.0,29.84,NW,317,3.0,9.0,52,0.00,,,0.00,Wunderground v.1.15,2013-09-11 00:19:00,
2013-09-10 19:24:00,86.2,67.1,29.84,NW,317,2.0,3.0,53,0.00,,,0.00,Wunderground v.1.15,2013-09-11 00:24:00,
2013-09-10 19:29:00,86.0,67.4,29.84,NW,317,3.0,3.0,54,0.00,,,0.00,Wunderground v.1.15,2013-09-11 00:29:00,
2013-09-10 19:34:00,85.3,67.3,29.84,NW,317,4.0,4.0,55,0.00,,,0.00,Wunderground v.1.15,2013-09-11 00:34:00,
2013-09-10 19:39:00,84.7,67.8,29.84,NW,320,0.0,5.0,57,0.00,,,0.00,Wunderground v.1.15,2013-09-11 00:39:00,
2013-09-10 19:44:00,84.0,67.6,29.85,NW,320,0.0,2.0,58,0.00,,,0.00,Wunderground v.1.15,2013-09-11 00:44:00,
2013-09-10 19:49:00,83.6,67.8,29.85,NW,320,0.0,2.0,59,0.00,,,0.00,Wunderground v.1.15,2013-09-11 00:49:00,
2013-09-10 19:54:00,83.3,68.0,29.85,NW,320,0.0,0.0,60,0.00,,,0.00,Wunderground v.1.15,2013-09-11 00:54:00,
2013-09-10 19:59:00,83.2,67.9,29.85,NW,320,0.0,0.0,60,0.00,,,0.00,Wunderground v.1.15,2013-09-11 00:59:00,
2013-09-10 20:04:00,83.2,68.3,29.85,NW,320,0.0,0.0,61,0.00,,,0.00,Wunderground v.1.15,2013-09-11 01:04:00,
2013-09-10 20:09:00,82.9,68.1,29.86,NW,320,0.0,0.0,61,0.00,,,0.00,Wunderground v.1.15,2013-09-11 01:09:00,
2013-09-10 20:14:00,82.8,67.5,29.86,NW,319,0.0,0.0,60,0.00,,,0.00,Wunderground v.1.15,2013-09-11 01:14:00,
2013-09-10 20:19:00,82.7,67.9,29.86,WNW,288,0.0,0.0,61,0.00,,,0.00,Wunderground v.1.15,2013-09-11 01:19:00,
2013-09-10 20:25:00,82.7,67.4,29.87,WNW,287,0.0,0.0,60,0.00,,,0.00,Wunderground v.1.15,2013-09-11 01:25:00,
2013-09-10 20:30:00,82.3,68.4,29.87,WNW,287,0.0,0.0,63,0.00,,,0.00,Wunderground v.1.15,2013-09-11 01:30:00,
2013-09-10 20:35:00,81.6,68.2,29.88,WNW,287,0.0,0.0,64,0.00,,,0.00,Wunderground v.1.15,2013-09-11 01:35:00,
2013-09-10 20:40:00,81.1,68.7,29.89,WNW,287,0.0,0.0,66,0.00,,,0.00,Wunderground v.1.15,2013-09-11 01:40:00,
2013-09-10 20:45:00,80.3,68.3,29.89,WNW,287,0.0,0.0,67,0.00,,,0.00,Wunderground v.1.15,2013-09-11 01:45:00,
2013-09-10 20:50:00,79.4,68.3,29.89,WNW,287,0.0,0.0,69,0.00,,,0.00,Wunderground v.1.15,2013-09-11 01:50:00,
2013-09-10 20:55:00,78.9,67.9,29.89,WNW,288,0.0,0.0,69,0.00,,,0.00,Wunderground v.1.15,2013-09-11 01:55:00,
2013-09-10 21:00:00,79.1,68.1,29.89,WNW,288,0.0,0.0,69,0.00,,,0.00,Wunderground v.1.15,2013-09-11 02:00:00,
2013-09-10 21:05:00,79.4,67.9,29.89,WNW,288,0.0,0.0,68,0.00,,,0.00,Wunderground v.1.15,2013-09-11 02:05:00,
2013-09-10 21:10:00,79.4,67.9,29.89,WNW,288,0.0,0.0,68,0.00,,,0.00,Wunderground v.1.15,2013-09-11 02:10:00,
2013-09-10 21:15:00,79.4,67.9,29.89,WNW,288,0.0,0.0,68,0.00,,,0.00,Wunderground v.1.15,2013-09-11 02:15:00,
2013-09-10 21:20:00,79.5,68.0,29.90,WNW,288,0.0,0.0,68,0.00,,,0.00,Wunderground v.1.15,2013-09-11 02:20:00,
2013-09-10 21:25:00,79.3,68.2,29.90,WNW,288,0.0,0.0,69,0.00,,,0.00,Wunderground v.1.15,2013-09-11 02:25:00,
2013-09-10 21:30:00,79.1,68.1,29.90,WNW,288,0.0,0.0,69,0.00,,,0.00,Wunderground v.1.15,2013-09-11 02:30:00,
2013-09-10 21:35:00,78.7,68.5,29.90,WNW,288,0.0,0.0,71,0.00,,,0.00,Wunderground v.1.15,2013-09-11 02:35:00,
2013-09-10 21:40:00,78.2,68.4,29.90,WNW,288,0.0,0.0,72,0.00,,,0.00,Wunderground v.1.15,2013-09-11 02:40:00,
2013-09-10 21:45:00,77.9,68.5,29.90,WNW,288,0.0,0.0,73,0.00,,,0.00,Wunderground v.1.15,2013-09-11 02:45:00,
2013-09-10 21:50:00,77.8,68.4,29.90,WNW,288,0.0,0.0,73,0.00,,,0.00,Wunderground v.1.15,2013-09-11 02:50:00,
2013-09-10 21:55:00,77.9,68.5,29.90,WNW,288,0.0,0.0,73,0.00,,,0.00,Wunderground v.1.15,2013-09-11 02:55:00,
2013-09-10 22:00:00,78.1,68.7,29.90,WNW,288,0.0,0.0,73,0.00,,,0.00,Wunderground v.1.15,2013-09-11 03:00:00,
2013-09-10 22:05:00,78.2,68.8,29.90,WNW,288,0.0,0.0,73,0.00,,,0.00,Wunderground v.1.15,2013-09-11 03:05:00,
2013-09-10 22:10:00,78.2,68.8,29.90,WNW,288,0.0,0.0,73,0.00,,,0.00,Wunderground v.1.15,2013-09-11 03:10:00,
2013-09-10 22:15:00,78.4,69.0,29.90,WNW,288,0.0,0.0,73,0.00,,,0.00,Wunderground v.1.15,2013-09-11 03:15:00,
2013-09-10 22:20:00,78.4,69.0,29.91,WNW,288,0.0,0.0,73,0.00,,,0.00,Wunderground v.1.15,2013-09-11 03:20:00,
2013-09-10 22:25:00,78.0,69.0,29.91,WNW,290,0.0,0.0,74,0.00,,,0.00,Wunderground v.1.15,2013-09-11 03:25:00,
2013-09-10 22:30:00,77.9,69.3,29.91,WNW,291,0.0,0.0,75,0.00,,,0.00,Wunderground v.1.15,2013-09-11 03:30:00,
2013-09-10 22:35:00,77.8,69.6,29.92,WNW,290,1.0,5.0,76,0.00,,,0.00,Wunderground v.1.15,2013-09-11 03:35:00,
2013-09-10 22:40:00,77.6,69.4,29.91,WNW,290,0.0,1.0,76,0.00,,,0.00,Wunderground v.1.15,2013-09-11 03:40:00,
2013-09-10 22:45:00,77.3,69.1,29.91,WNW,292,0.0,1.0,76,0.00,,,0.00,Wunderground v.1.15,2013-09-11 03:45:00,
2013-09-10 22:50:00,76.9,68.8,29.91,NW,308,0.0,2.0,76,0.00,,,0.00,Wunderground v.1.15,2013-09-11 03:50:00,
2013-09-10 22:55:00,76.9,68.4,29.90,NNW,338,0.0,5.0,75,0.00,,,0.00,Wunderground v.1.15,2013-09-11 03:55:00,
2013-09-10 23:00:00,77.0,68.1,29.90,NNW,341,0.0,1.0,74,0.00,,,0.00,Wunderground v.1.15,2013-09-11 04:00:00,
2013-09-10 23:01:00,77.0,68.1,29.90,NNW,341,0.0,1.0,74,0.00,,,0.00,Wunderground v.1.15,2013-09-11 04:01:00,
2013-09-10 23:06:00,77.0,68.1,29.91,NNW,345,0.0,3.0,74,0.00,,,0.00,Wunderground v.1.15,2013-09-11 04:06:00,
2013-09-10 23:11:00,76.7,68.2,29.92,NNW,344,0.0,0.0,75,0.00,,,0.00,Wunderground v.1.15,2013-09-11 04:11:00,
2013-09-10 23:16:00,76.4,67.5,29.92,NNW,344,0.0,0.0,74,0.00,,,0.00,Wunderground v.1.15,2013-09-11 04:16:00,
2013-09-10 23:21:00,76.1,67.6,29.92,NNW,344,0.0,0.0,75,0.00,,,0.00,Wunderground v.1.15,2013-09-11 04:21:00,
2013-09-10 23:26:00,75.8,67.3,29.92,NNW,344,0.0,0.0,75,0.00,,,0.00,Wunderground v.1.15,2013-09-11 04:26:00,
2013-09-10 23:32:00,75.6,66.7,29.91,NNW,344,0.0,0.0,74,0.00,,,0.00,Wunderground v.1.15,2013-09-11 04:32:00,
2013-09-10 23:37:00,75.7,66.8,29.92,NNW,344,0.0,0.0,74,0.00,,,0.00,Wunderground v.1.15,2013-09-11 04:37:00,
2013-09-10 23:42:00,75.6,66.7,29.91,NNW,344,0.0,0.0,74,0.00,,,0.00,Wunderground v.1.15,2013-09-11 04:42:00,
2013-09-10 23:47:00,75.6,66.7,29.91,NNW,344,0.0,0.0,74,0.00,,,0.00,Wunderground v.1.15,2013-09-11 04:47:00,
2013-09-10 23:52:00,75.6,66.7,29.92,NNW,344,0.0,0.0,74,0.00,,,0.00,Wunderground v.1.15,2013-09-11 04:52:00,
2013-09-10 23:57:00,75.7,66.8,29.92,NNW,344,0.0,0.0,74,0.00,,,0.00,Wunderground v.1.15,2013-09-11 04:57:00,